Terminal Aerodrome Forecast
Issued by NWS Brownsville, TX

Home | Current Version | Previous Version | Text Only | Print | Product List | Glossary On
Versions: 1 2 3 4 5 6 7 8 9 10 11 12 13 14 15 16 17 18 19 20 21 22 23 24 25 26
000
FTUS44 KBRO 182300
TAFMFE
TAF
KMFE 182320Z 1900/1924 15012G18KT P6SM SCT035 BKN250
     FM190300 15007KT P6SM FEW025 SCT250
     FM191300 14010KT P6SM SCT015 BKN025
     FM191700 13010G15KT P6SM SCT035 BKN250=

USA.gov is the U.S. government's official web portal to all federal, state and local government web resources and services.